Regional Weather Roundup
Issued by NWS Green Bay, WI

Home | Current Version | Previous Version | Graphics & Text | Print | Product List | Glossary Off
Versions: 1 2 3 4 5 6 7 8 9 10 11 12 13 14 15 16 17 18 19 20 21 22 23 24 25 26 27 28 29 30 31 32 33 34 35 36 37 38 39 40 41 42 43 44 45 46 47 48 49 50

000
ASUS43 KGRB 042000
RWRGRB

NORTH-CENTRAL AND NORTHEAST WISCONSIN REGIONAL WEATHER ROUNDUP
NATIONAL WEATHER SERVICE GREEN BAY WI
300 PM CDT TUE AUG 04 2015

WIZ005-009-010>012-018-019-042100-
NORTH CENTRAL WISCONSIN

CITY           SKY/WX    TMP DP  RH WIND       PRES   REMARKS
IRONWOOD       PTSUNNY   66  54  63 N10       29.97R
MANITOWISH WTR NOT AVBL
ARBOR VITAE    NOT AVBL
EAGLE RIVER    NOT AVBL
LAND O LAKES   NOT AVBL
RHINELANDER    CLOUDY    70  50  49 NW6       29.99R
PHILLIPS       NOT AVBL
ANTIGO         NOT AVBL
TOMAHAWK       NOT AVBL
MERRILL        NOT AVBL
$$

WIZ013-073-042100-
NORTHEAST WISCONSIN

CITY           SKY/WX    TMP DP  RH WIND       PRES   REMARKS
IRON MOUNTAIN  PTSUNNY   70  50  49 NW14G21   29.94R
MARINETTE      CLOUDY    68  55  64 SE9       29.93R
$$

WIZ017-030-035>037-045-042100-
CENTRAL WISCONSIN

CITY           SKY/WX    TMP DP  RH WIND       PRES   REMARKS
MEDFORD        NOT AVBL
WAUSAU         CLOUDY    75  49  39 NW14      29.96S
MOSINEE        NOT AVBL
MARSHFIELD     CLOUDY    74  49  41 NW9G18    29.99S
WISC RAPIDS    CLOUDY    76  49  38 NW10      29.99F
STEVENS POINT  NOT AVBL
WAUPACA        NOT AVBL
SHAWANO        NOT AVBL
CLINTONVILLE   NOT AVBL
$$

WIZ038-039-048-051-042100-
FOX VALLEY

CITY           SKY/WX    TMP DP  RH WIND       PRES   REMARKS
NWS GREEN BAY  MOSUNNY   78  55  44 W12       29.94S
APPLETON       PTSUNNY   75  46  35 NW14G21   29.96S
OSHKOSH        MOSUNNY   78  51  38 W14G22    29.96S
FOND DU LAC    MOSUNNY   78  52  40 NW9       29.97S
$$

WIZ022-050-052-042100-
EAST CENTRAL WISCONSIN

CITY           SKY/WX    TMP DP  RH WIND       PRES   REMARKS
STURGEON BAY   SUNNY     72  54  53 N7        29.96S
MANITOWOC      NOT AVBL
SHEBOYGAN      MOSUNNY   76  53  44 W9        29.96S
$$

LMZ563-521-522-541>543-042100-
LAKESHORE

STATION/POSITION TIME  TEMP    WIND        PRES    VSBY  WAVE
                       AIR SEA DIR/SP/G                  HT/PER
                 (UTC) (F)     (DEG/KT/KT) (MB)    (MI)  (FT/S)
SHEBOYGAN LKSHOR 1900   73     280/ 11/ 14 1014.4R
KEWAUNEE LKSHORE 1900   71     340/  5/  9 1013.3R
ALGOMA MARINA    1912          320/ 10/ 15   N/A
NORTHPORT PIER   1900   66      50/  2/  4 1013.5S
N MID LAKE BUOY  1850   63 70  280/  2/  4 1013.5R         1
SISTER BAY LKSHO 1918             CALM       N/A
CHAMBERS ISLAND  1900   66      50/  3/  4 1013.5S
MENOMINEE LKSHOR 1900   65     100/  6/  9 1014.3R
$$



USA.gov is the U.S. government's official web portal to all federal, state and local government web resources and services.